www.pogodaiklimat.ru

Погода и климат >> Архив погоды >> Россия >> Мурманская область >> Иоканьга


ПОГОДА в Иоканьге

  • Прогноз погоды в Иоканьге
  • Монитор погоды в Иоканьге

АРХИВ ПОГОДЫ в Иоканьге

Время (UTC), дата Ветер
(напр.,м/с)
 
Видим.   Явления Облачность Т
(С)
Тd
(С)
f
(%)
Тe
(С)
Тes
(С)
Комфортность P
(гПа)
Po
(гПа)
Тmin
(С)
Tmax
(С)
R
(мм)
R24
(мм)
S
(см)
09 14.07 штиль 0 н/о н/о +5.4 +2.5 82 +5 +5 1013.9 1003.8
12 14.07 штиль 0 н/о н/о +5.7 +1.8 76 +5 +5 1014.3 1004.2
15 14.07 штиль 0 н/о н/о +5.2 +2.1 80 +4 +4 1014.4 1004.3
18 14.07 штиль 0 н/о н/о +4.4 +4.1 98 +3 +3 1014.8 1004.7 +6.4
21 14.07 штиль 0 н/о н/о +4.8 +4.1 95 +4 +4 1014.7 1004.6
00 15.07 СЗ 4 н/о н/о +4.7 +4.7 100 0 0 1014.9 1004.7
03 15.07 штиль 0 н/о н/о +4.8 +4.8 100 +4 +4 1015.2 1005.0 +4.3
06 15.07 штиль 0 н/о н/о +5.4 +4.8 96 +4 +4 1015.2 1005.1 +4.3
09 15.07 С 3-5
{12}
н/о н/о +5.8 +4.8 93 +2 +2 1015.2 1005.4
12 15.07 СВ 1 н/о н/о +5.7 +4.8 94 +4 +4 1015.2 1005.5
15 15.07 штиль 0 н/о н/о +5.8 +4.8 93 +5 +5 1015.2 1005.5
18 15.07 С 5-5
{13}
н/о н/о +5.2 +4.8 97 0 0 1015.2 1005.3 +6.1
21 15.07 С 3 н/о н/о +5.4 +4.8 96 +2 +2 1015.2 1004.8
00 16.07 СЗ 1 н/о н/о +5.5 +4.8 95 +4 +4 1015.2 1003.9
03 16.07 СЗ 1-10
{10}
н/о н/о +5.6 +4.8 95 +4 +4 1015.2 1003.2 +5.1
06 16.07 З 4-5
{10}
н/о н/о +5.9 +4.8 93 +2 +2 1015.2 1002.8 +5.2
09 16.07 З 3-5
{12}
н/о н/о +6.1 +4.8 91 +3 +3 1015.2 1002.6
12 16.07 СВ 1-5
{12}
н/о н/о +6.9 +4.8 86 +6 +6 1015.2 1002.9
15 16.07 СВ 2 н/о н/о +6.1 +4.8 91 +4 +4 1015.2 1003.4
18 16.07 З 3 н/о н/о +5.3 +4.8 97 +2 +2 1015.2 1002.2 +7.0
21 16.07 штиль 0 н/о н/о +4.9 +4.8 99 +4 +4 1015.2 1001.1
00 17.07 З 1 н/о н/о +5.5 +4.8 95 +4 +4 1015.2 999.6
03 17.07 З 1 н/о н/о +5.8 +4.8 93 +5 +5 1015.2 999.0 +4.9
06 17.07 З 2 н/о н/о +7.1 +5.1 87 +5 +5 1009.6 999.5 +4.9
09 17.07 ЮЗ 1 н/о н/о +9.2 +3.4 67 +9 +9 1011.3 1001.3
12 17.07 штиль 0 н/о н/о +10.2 +3.9 65 +10 +10 1012.9 1003.0
15 17.07 штиль 0 н/о н/о +11.9 +3.5 56 +12 +12 1014.7 1004.8
18 17.07 штиль 0 н/о н/о +11.3 +3.9 60 +11 +11 1016.1 1006.1 +12.4
21 17.07 штиль 0 н/о н/о +9.7 +4.0 68 +9 +9 1018.0 1008.0
00 18.07 штиль 0 н/о н/о +8.9 +4.4 73 +8 +8 1019.4 1009.4
03 18.07 штиль 0 н/о н/о +10.4 +4.5 67 +10 +10 1020.1 1010.1 +7.9
06 18.07 штиль 0 н/о н/о +13.2 +3.7 52 +13 +13 1020.8 1010.8 +7.9
09 18.07 штиль 0 н/о н/о +13.4 +3.8 52 +13 +13 1021.7 1011.8
12 18.07 штиль 0 н/о н/о +13.1 +4.6 56 +13 +13 1021.6 1011.7
15 18.07 штиль 0 н/о н/о +12.0 +4.0 58 +12 +12 1021.8 1011.8
18 18.07 штиль 0 н/о н/о +9.8 +3.5 65 +9 +9 1022.1 1012.0 +14.3
21 18.07 штиль 0 н/о н/о +7.5 +4.1 79 +7 +7 1021.5 1011.4
00 19.07 штиль 0 н/о н/о +7.7 +4.2 78 +7 +7 1021.8 1011.7
03 19.07 штиль 0 н/о н/о +7.8 +4.1 77 +7 +7 1021.5 1011.4 +7.1
06 19.07 штиль 0 н/о н/о +9.8 +4.6 70 +9 +9 1020.7 1010.6 +7.1
09 19.07 штиль 0 н/о н/о +10.5 +4.5 66 +10 +10 1019.8 1009.8
12 19.07 штиль 0 н/о н/о +6.2 +6.2 100 +5 +5 1019.4 1009.2
15 19.07 штиль 0 н/о н/о +5.3 +5.3 100 +4 +4 1018.6 1008.5
18 19.07 С 1 н/о н/о +4.8 +4.8 100 +3 +3 1017.7 1007.5 +11.1
21 19.07 С 1 н/о н/о +4.1 +3.9 99 +2 +2 1017.0 1006.8
00 20.07 штиль 0 н/о н/о +3.9 +3.5 97 +3 +3 1016.6 1006.3
03 20.07 штиль 0
{12}
н/о н/о +3.4 +3.0 97 +2 +2 1016.2 1005.9 +3.6

 

Местоположение метеостанции Иоканьга (Мурманская область, Россия): широта 68.05 долгота 39.50 высота над уровнем моря 82 м.

В архиве по умолчанию представлена погода в Иоканьге за последнюю неделю. Архивные данные за месяц целиком и за предыдущие месяцы, начиная с января 2011 года, Вы можете получить, выбрав интересующий диапазон дат из раскрывающегося списка и нажав кнопку "Ввод!".


*Определитесь, кто Вы:
робот инопланетянин человек

Внимание! Время в таблицах - всемирное. Для получения местного времени необходимо прибавить поправку, которая равна 3 ч.

Смотрите также архив погоды в соседних городах и на ближайших метеорологических станциях:

Погода в Святом Носе (Мурманская область, Россия) (16 км)
Погода в Каневке (Мурманская область, Россия) (103 км)
Погода в Краснощелье (Мурманская область, Россия) (129 км)
Погода в Канином Носе (Ненецкий АО, Россия) (170 км)
Погода на Сосновец Острове (Мурманская область, Россия) (182 км)
Погода в Туманной (Мурманская область, Россия) (183 км)
Погода в Дальних Зеленцах (Мурманская область, Россия) (183 км)
Погода в Ловозере (Мурманская область, Россия) (186 км)
Погода на Моржовец Острове (Архангельская область, Россия) (195 км)
Погода в Шойне (Ненецкий АО, Россия) (196 км)

Пояснения к столбцам:

Ветер - указаны скорость ветра в м/с - средняя за 10 мин, порывы в срок и между сроками (в фигурных скобках) и направление, откуда дует ветер: С - северный, СВ - северо-восточный, В - восточный, ЮВ - юго-восточный, Ю - южный, ЮЗ - юго-западный, З - западный, СЗ - северо-западный.
Видимость - горизонтальная дальность видимости в метрах или километрах. При видимости от 1 до 10 км при отсутствии осадков обычно наблюдается дымка, при ухудшении видимости до 1 км и менее - туман. В сухую погоду видимость может ухудшаться дымом, пылью или мглою.
Явления - указаны атмосферные явления, наблюдавшиеся в срок или в последний час перед сроком; фигурными скобками обозначены явления, наблюдавшиеся между сроками (за 1-3 часа до срока); квадратными скобками обозначены град или гололедные отложения с указанием их диаметра в мм.
Облачность - указаны через наклонную черту общая и нижняя облачность в баллах и высота нижней границы облаков в метрах; квадратными скобками обозначены формы облаков: Ci - перистые, Cs - перисто-слоистые, Cc - перисто-кучевые, Ac - высококучевые, As - высокослоистые, Sc - слоисто-кучевые, Ns - слоисто-дождевые, Cu - кучевые, Cb - кучево-дождевые. Подробнее классификацию облаков см. в Атласе облаков (PDF).
T - Температура воздуха - температура, измеренная на высоте 2 м над землей.
Td - Температура точки росы - температура, при понижении до которой содержащийся в воздухе водяной пар достигнет насыщения.
f - Относительная влажность воздуха - влажноcть воздуха, измеренная на высоте 2 м над землей.
Te - Эффективная температура - температура, которую ощущает одетый по сезону человек в тени. Характеристика душности погоды. При расчете учитывается влияние влажности воздуха и скорости ветра на теплоощущения человека.
Tes - Эффективная температура на солнце - температура, которую ощущает человек, с поправкой на солнечный нагрев. Характеристика знойности погоды. Зависит от высоты солнца над горизонтом, облачности и скорости ветра. Ночью, в пасмурную погоду, а также при ветре 12 м/с и более поправка равна нулю.
P - Атмосферное давление - приведенное к уровню моря атмосферное давление.
Po - Атмосферное давление - измеренное на уровне метеостанции атмосферное давление.
Tmin - Минимальная температура - минимум температуры воздуха на высоте 2 м над землей.
Tmax - Максимальная температура - максимум температуры воздуха на высоте 2 м над землей.
R - Количество осадков - Количество выпавших осадков за период времени, мм. При наведении курсора мыши на число - период времени, за который выпало указанное количество осадков.
R24 - Количество осадков - Количество выпавших осадков за 24 часа, мм.
S - Снежный покров - Высота снежного покрова, см. При наведении курсора мыши на число - состояние снежного покрова и степень покрытия местности в баллах.